Temperature
15 15 15 15 15 15 15 14 14 14 13 13 13 13 13 13 13 13 13 13 14 14 14 14 14 14 14 14 14 14 14 14 14 14 14 14 14 14
15 15 15 15 15 15 15 14 14 14 14 13 13 13 13 13 13 13 13 13 13 13 13 14 14 14 14 14 14 14 14 14 14 14 14 14 14 14
15 15 15 15 15 15 15 14 14 14 14 13 13 13 13 13 13 13 13 13 13 13 13 13 13 13 13 13 13 13 13 13 13 13 13 14 13 13
15 15 15 15 15 14 14 14 14 14 14 13 13 13 13 13 13 13 13 13 13 13 13 13 13 13 13 13 13 13 13 13 13 13 13 13 13 13
15 15 15 14 14 14 14 14 14 14 13 13 13 13 12 12 12 12 12 12 12 12 12 12 12 12 12 12 12 13 13 12 12 12 12 12 12 12
15 14 14 14 14 14 14 14 13 13 13 13 13 12 12 12 12 12 12 12 12 12 12 12 12 12 12 12 12 12 12 12 12 12 12 12 12 12
14 14 14 14 14 14 14 13 13 13 13 13 12 12 12 12 12 12 12 12 12 12 12 12 12 12 12 12 11 11 11 11 11 11 11 11 11 11
14 14 14 14 14 14 13 13 13 13 13 12 12 12 12 12 12 12 11 11 11 11 11 11 11 11 11 11 11 11 11 11 11 11 11 11 11 11
14 14 14 14 14 14 13 13 13 13 12 12 12 12 12 12 12 11 11 11 11 11 11 11 11 11 11 11 11 11 11 11 11 10 10 10 10 10
14 14 14 13 13 13 13 13 13 13 12 12 12 12 12 12 11 11 11 11 11 11 11 11 11 11 10 11 10 10 10 10 10 10 10 10 10 10
14 14 13 13 13 13 13 13 12 12 12 12 12 12 12 12 11 11 11 11 11 11 10 10 10 10 10 10 10 10 10 10 9 9 9 9 9 9
14 14 13 13 13 13 12 12 12 12 12 12 12 11 11 11 11 11 11 10 10 10 10 10 10 9 9 10 10 9 9 9 9 9 9 9 8 8
14 14 13 13 13 12 12 12 12 11 11 11 11 11 11 11 11 11 10 10 10 10 10 9 9 9 9 9 9 9 9 9 8 8 8 8 8 8
14 13 13 13 13 12 12 12 12 11 11 11 11 11 11 10 10 10 10 10 10 9 9 9 9 9 8 8 8 8 8 8 8 8 8 8 8 7
13 13 13 13 12 12 12 12 11 11 11 11 11 11 10 10 10 10 9 9 9 9 9 9 8 8 8 8 8 8 8 8 7 7 7 7 7 7
13 13 12 12 12 12 12 11 11 11 11 11 11 10 10 10 9 9 9 9 9 9 9 8 8 8 8 7 7 7 7 7 7 7 7 7 6 6
13 12 12 12 12 12 11 11 11 11 11 10 10 10 10 9 9 9 8 8 8 8 8 8 8 7 7 7 7 7 7 7 6 6 6 6 6 6
12 12 12 12 11 11 11 11 10 10 10 10 10 9 9 9 8 8 8 8 7 7 7 7 7 7 6 6 6 6 6 6 6 6 5 5 5 5
11 11 11 11 11 10 10 10 10 10 9 9 9 9 8 8 8 8 7 7 7 7 7 7 6 6 6 6 6 6 6 5 5 5 5 5 4 5
11 11 11 10 10 10 9 9 9 9 9 8 8 8 8 7 7 7 7 7 6 6 6 6 6 6 5 5 5 5 5 5 4 4 4 4 4 4
10 10 10 10 9 9 9 9 8 8 8 8 8 7 7 7 7 6 6 6 6 6 6 6 6 5 5 5 4 5 5 4 4 4 4 3 3 3
10 9 9 9 9 9 8 8 8 8 7 7 7 7 6 6 6 6 6 5 5 5 5 5 5 5 4 4 4 4 4 4 4 3 3 3 2 2
9 8 8 8 8 8 8 7 7 7 7 7 6 6 6 5 5 5 5 5 5 5 5 4 4 4 4 4 3 3 3 3 3 3 3 3 3 2
Wind_Speed
4 4 4 3 4 3 3 2 3 2 1 1 2 2 5 6 7 7 8 10 11 11 12 12 13 13 13 13 13 13 13 13 13 13 13 12 10 10
4 5 4 3 3 3 3 3 3 2 1 1 1 1 3 4 6 7 6 7 8 9 9 10 10 11 12 12 12 12 12 12 13 13 12 11 11 9
3 5 5 4 3 3 3 3 3 3 3 1 1 1 2 3 3 4 3 4 5 6 6 7 8 9 9 10 10 10 11 12 13 12 12 11 10 9
4 5 4 4 4 3 3 3 2 2 3 2 1 1 2 2 1 1 2 3 3 3 4 5 6 6 7 7 7 8 10 11 11 13 13 11 10 10
3 4 3 4 3 2 2 2 2 3 2 2 1 0 1 1 1 2 2 1 1 2 2 2 2 3 4 4 5 6 8 8 10 11 12 12 11 10
3 4 4 4 3 2 2 2 2 2 2 2 1 1 0 0 1 1 2 2 2 1 1 1 1 0 1 2 3 4 5 6 7 9 9 10 10 10
3 4 4 6 8 5 3 3 3 2 1 1 0 1 0 1 1 1 1 2 2 0 0 1 1 1 1 1 1 2 3 4 6 7 7 8 9 10
3 3 4 6 7 6 6 5 4 2 1 0 0 0 1 1 1 1 1 1 2 2 1 2 1 1 2 2 2 2 3 4 5 6 7 8 9 10
2 3 3 4 4 3 3 3 3 2 0 1 0 1 1 1 1 1 1 1 2 3 1 3 2 2 3 4 5 4 5 5 6 7 8 8 9 10
1 2 4 4 3 3 2 1 1 1 1 1 0 1 1 1 0 1 1 2 3 2 1 2 3 2 3 5 7 7 7 7 8 9 9 10 10 11
1 1 3 3 3 3 2 1 0 1 1 1 1 2 2 3 2 2 2 2 3 3 2 2 3 3 3 3 7 8 8 9 10 11 11 11 12 12
1 1 2 3 3 4 3 2 2 2 1 1 2 4 4 5 4 3 2 2 2 3 2 1 3 2 4 3 3 6 8 10 11 13 13 12 12 10
2 2 2 4 5 5 4 3 4 3 2 2 2 3 3 3 4 5 4 2 3 4 3 1 2 2 3 4 4 4 6 6 9 10 12 12 13 10
3 2 2 4 6 6 5 4 4 3 2 2 3 3 3 3 3 4 6 7 6 7 7 3 3 3 4 5 5 4 4 7 7 6 8 11 12 13
2 3 3 4 5 5 6 6 4 2 2 3 4 5 4 4 3 3 4 6 7 10 10 9 4 4 4 5 5 5 5 5 5 4 5 5 6 7
4 4 4 4 3 4 4 4 4 4 4 5 4 4 3 3 3 3 3 3 4 5 9 12 10 6 5 6 6 7 6 5 5 4 5 5 7 8
3 2 2 2 3 3 4 4 4 4 6 5 5 5 5 4 4 4 4 4 5 6 5 5 9 11 7 6 6 8 7 7 6 6 5 6 6 7
3 3 4 4 5 5 5 5 5 6 6 6 6 5 5 5 5 4 4 5 6 6 6 5 4 4 5 6 8 8 7 7 6 6 5 6 8 7
3 4 5 5 5 5 5 5 5 5 5 5 5 5 5 5 5 5 5 5 7 7 6 5 4 4 7 10 7 9 7 7 6 6 6 7 9 8
3 5 5 4 4 4 4 5 4 4 4 4 5 5 5 5 5 6 6 7 7 7 7 6 6 7 9 10 8 7 9 7 6 7 7 7 7 10
4 4 4 4 4 4 4 4 4 4 5 5 5 5 5 5 6 7 7 9 8 8 9 9 8 10 7 5 6 7 6 11 11 7 7 7 8 8
3 4 4 4 4 4 4 4 5 5 5 5 5 5 5 6 7 8 7 8 8 9 10 8 7 5 5 7 9 10 9 8 11 16 15 13 8 8
4 4 4 4 4 4 4 5 6 6 5 5 5 5 6 6 6 7 8 8 8 9 9 8 6 5 6 7 8 9 10 10 8 8 8 14 18 19
Wind_Direction
67 70 68 55 48 47 57 88 119 114 60 64 69 53 78 71 53 64 64 53 50 50 47 45 44 45 45 45 44 42 40 38 36 33 32 30 28 32
60 61 59 61 53 45 41 35 55 105 105 51 94 118 74 77 60 61 68 57 55 53 50 46 46 44 43 43 42 41 38 35 32 27 21 18 17 19
86 78 62 57 57 41 44 45 44 81 105 78 81 96 79 69 65 47 65 80 67 57 58 57 51 44 40 39 39 39 37 34 28 21 17 17 16 14
88 92 81 69 58 44 47 45 41 63 111 113 84 65 81 89 71 16 40 66 80 69 71 67 54 44 38 36 38 37 35 31 24 20 20 19 16 17
86 98 105 96 78 59 55 51 40 54 75 109 137 79 77 86 49 5 25 22 15 111 103 68 53 43 37 37 40 35 32 26 20 16 16 18 18 17
94 84 81 83 80 72 69 56 56 57 56 74 96 127 134 2 74 359 337 315 315 17 65 39 0 41 15 38 29 25 25 16 11 8 7 6 5 3
94 90 82 81 71 63 62 51 52 50 52 66 88 57 25 27 321 288 301 298 305 259 58 261 237 218 250 306 339 352 357 353 352 352 352 351 350 348
115 122 117 95 81 72 64 64 70 69 65 72 183 189 262 254 278 312 324 341 309 299 4 297 226 252 223 234 243 255 288 306 316 321 325 329 333 334
139 141 126 118 113 109 78 52 35 27 29 173 251 250 255 259 240 301 310 295 264 261 350 297 285 269 247 245 246 256 269 282 292 298 305 311 316 320
113 131 132 138 138 138 146 119 19 342 340 44 100 300 330 351 7 230 249 306 298 298 268 279 288 276 272 253 254 257 267 278 285 292 296 300 304 308
208 137 141 146 147 134 138 167 229 286 334 339 275 276 306 328 348 31 346 331 302 289 269 249 280 291 283 263 251 258 270 278 284 290 291 293 299 304
222 168 142 152 154 153 170 199 231 244 247 295 283 277 277 280 273 227 220 243 273 288 273 252 284 314 307 284 254 265 269 275 280 287 288 289 294 299
219 202 193 184 186 191 195 206 226 241 250 254 254 258 258 252 250 245 233 212 244 267 276 269 285 286 268 290 292 270 261 271 279 282 283 286 288 285
234 216 210 207 206 211 213 231 242 264 265 271 273 263 255 253 250 239 237 237 241 253 270 270 260 265 278 288 285 286 282 282 275 271 279 285 284 282
257 261 247 226 213 219 226 231 234 238 246 257 258 256 253 248 249 250 251 251 259 265 271 270 261 266 258 267 276 280 291 287 274 276 281 278 277 283
260 273 264 238 221 228 231 237 230 230 232 244 254 258 263 262 255 247 250 254 265 273 265 262 259 254 265 267 270 280 278 277 286 283 283 280 279 283
215 219 224 226 231 238 237 233 227 232 240 244 250 256 258 256 255 248 244 249 254 264 271 269 260 255 248 257 272 273 276 276 273 276 283 285 277 272
195 222 229 229 232 236 238 240 233 233 236 237 240 245 251 255 260 259 251 249 257 262 263 263 268 283 293 275 248 265 271 271 273 272 268 282 284 277
206 232 238 238 240 240 241 242 244 242 239 240 245 249 253 257 259 261 260 260 263 264 264 259 254 254 275 283 276 245 256 272 276 275 269 268 278 282
229 240 246 249 251 252 252 254 255 255 249 250 251 253 253 257 263 263 262 262 267 271 272 265 252 246 252 267 277 272 252 255 269 274 276 275 273 278
241 247 252 256 259 259 259 260 259 258 257 253 253 255 254 256 261 262 264 266 265 267 267 264 256 254 255 263 277 277 270 261 263 268 277 284 288 288
260 260 263 264 266 266 265 262 262 261 261 258 259 260 258 256 259 262 264 267 266 265 269 270 266 260 250 255 266 273 281 282 274 273 268 266 271 279
263 266 265 263 262 266 266 267 264 262 262 263 264 263 263 265 265 266 268 267 269 271 274 276 273 261 254 254 262 270 276 282 284 284 275 271 271 275
Height
1572 1572 1572 1573 1573 1573 1573 1574 1574 1574 1574 1574 1574 1573 1572 1571 1570 1568 1567 1566 1565 1564 1562 1561 1560 1559 1558 1557 1556 1555 1554 1552 1551 1550 1548 1547 1546 1545
1573 1573 1573 1573 1573 1574 1574 1574 1574 1574 1574 1574 1574 1574 1573 1572 1571 1569 1568 1567 1566 1564 1563 1562 1561 1560 1559 1557 1556 1555 1554 1552 1550 1548 1546 1544 1543 1542
1574 1574 1574 1574 1574 1574 1574 1574 1574 1574 1574 1574 1574 1574 1573 1572 1571 1570 1568 1567 1566 1565 1564 1563 1561 1560 1559 1558 1556 1555 1553 1551 1549 1546 1542 1539 1538 1538
1574 1574 1574 1574 1574 1574 1574 1574 1574 1574 1574 1574 1574 1574 1573 1572 1571 1570 1569 1568 1566 1565 1564 1563 1562 1560 1559 1557 1556 1554 1552 1551 1548 1545 1540 1536 1535 1535
1574 1574 1574 1574 1574 1574 1574 1574 1574 1574 1574 1574 1573 1573 1573 1572 1570 1569 1569 1567 1566 1565 1564 1563 1562 1560 1559 1557 1556 1554 1552 1550 1548 1545 1541 1537 1536 1535
1574 1574 1574 1574 1574 1574 1574 1574 1573 1573 1573 1573 1573 1572 1572 1571 1570 1569 1567 1567 1566 1565 1564 1562 1561 1560 1558 1556 1555 1553 1551 1550 1547 1545 1542 1540 1538 1536
1574 1574 1574 1575 1574 1574 1574 1573 1573 1573 1573 1573 1572 1571 1570 1569 1569 1568 1566 1565 1565 1564 1563 1561 1560 1558 1557 1556 1554 1552 1550 1549 1547 1544 1542 1540 1538 1536
1574 1574 1574 1574 1574 1573 1573 1573 1572 1572 1572 1572 1571 1570 1569 1568 1567 1566 1565 1564 1563 1563 1561 1560 1559 1557 1556 1554 1553 1551 1549 1547 1545 1543 1541 1539 1537 1535
1573 1573 1573 1572 1572 1572 1572 1572 1571 1571 1571 1571 1570 1569 1567 1566 1565 1564 1563 1562 1561 1561 1560 1558 1557 1555 1554 1552 1551 1549 1547 1545 1543 1541 1539 1537 1535 1533
1572 1572 1571 1571 1571 1570 1570 1569 1569 1569 1569 1569 1568 1567 1566 1565 1564 1563 1562 1561 1559 1558 1557 1555 1554 1552 1551 1549 1548 1546 1545 1543 1541 1539 1536 1534 1532 1530
1570 1570 1570 1569 1569 1568 1568 1567 1567 1567 1567 1566 1566 1565 1564 1563 1562 1561 1559 1558 1556 1555 1555 1553 1551 1549 1547 1546 1545 1544 1542 1540 1538 1536 1534 1531 1529 1527
1568 1568 1568 1567 1567 1566 1566 1565 1564 1564 1564 1563 1562 1562 1561 1560 1559 1558 1557 1556 1554 1552 1551 1550 1547 1545 1543 1542 1541 1540 1538 1536 1534 1532 1530 1528 1525 1522
1565 1565 1565 1565 1564 1564 1563 1562 1562 1561 1560 1560 1559 1558 1557 1556 1556 1555 1554 1553 1551 1549 1549 1547 1544 1542 1540 1537 1536 1535 1534 1532 1530 1528 1526 1523 1521 1518
1561 1561 1561 1561 1561 1560 1560 1559 1559 1558 1557 1556 1555 1554 1553 1553 1552 1551 1550 1549 1547 1546 1545 1543 1541 1539 1536 1533 1531 1530 1529 1527 1525 1522 1520 1518 1516 1514
1558 1558 1558 1557 1557 1556 1556 1555 1555 1554 1553 1552 1550 1550 1550 1549 1548 1546 1545 1544 1542 1541 1540 1539 1537 1535 1533 1529 1526 1525 1523 1521 1520 1517 1514 1512 1510 1507
1554 1553 1553 1553 1552 1552 1551 1551 1550 1549 1548 1547 1546 1546 1545 1544 1542 1541 1540 1539 1537 1535 1535 1534 1532 1530 1527 1525 1522 1519 1517 1515 1513 1511 1508 1506 1504 1502
1549 1549 1548 1548 1547 1547 1546 1546 1545 1544 1543 1542 1541 1540 1539 1538 1537 1536 1535 1533 1531 1529 1528 1527 1526 1524 1522 1520 1516 1513 1511 1509 1507 1505 1502 1498 1497 1495
1545 1543 1543 1543 1542 1541 1541 1540 1540 1539 1538 1537 1536 1535 1534 1532 1531 1531 1529 1528 1526 1524 1522 1521 1520 1517 1514 1512 1511 1508 1505 1503 1500 1498 1496 1492 1488 1487
1539 1538 1538 1537 1537 1536 1536 1535 1534 1534 1533 1532 1531 1529 1528 1527 1526 1524 1523 1522 1519 1517 1516 1515 1514 1511 1508 1503 1502 1503 1500 1496 1493 1491 1489 1486 1481 1478
1534 1534 1533 1533 1532 1531 1531 1530 1529 1529 1527 1526 1525 1524 1523 1521 1520 1518 1517 1515 1513 1511 1509 1508 1507 1505 1502 1499 1495 1493 1493 1491 1487 1484 1481 1477 1474 1471
1530 1529 1529 1528 1527 1526 1525 1524 1524 1523 1522 1520 1519 1518 1516 1515 1513 1512 1510 1508 1507 1504 1502 1500 1499 1498 1496 1493 1488 1484 1484 1484 1481 1478 1474 1470 1466 1462
1525 1524 1523 1523 1522 1521 1520 1519 1517 1516 1515 1514 1512 1511 1510 1508 1506 1505 1503 1502 1499 1497 1494 1493 1492 1490 1488 1485 1480 1477 1475 1474 1473 1471 1468 1465 1461 1455
1520 1519 1518 1517 1516 1515 1514 1512 1511 1510 1508 1507 1505 1504 1502 1501 1499 1498 1496 1494 1492 1489 1487 1485 1483 1482 1479 1477 1473 1470 1468 1465 1463 1460 1459 1457 1455 1451